Retour au catalogue

STARLINK-11562

ActifCommunicationsVLEO
NORAD 62918·PAYLOAD·🇺🇸 United States

Lancé Feb 8, 2025 depuis Cape Canaveral Space Force Station

Loading…

Prochains Passages (prochaines 24 heures)

TLE

FraisSource: CelesTrak SupGP

Époque: Sep 14, 2026, 21:25 UTC

1 62918C 25027M   26257.89284722 -.00035566  00000+0 -27633-3 0  2573
2 62918  43.0004 287.0137 0001501 271.9224 353.6257 15.70848140    11

Suivez STARLINK-11562 en temps réel avec AllMySat

Download on the App Store